| time (UTC) | temp C | wind direction | speed KPH | gust KPH | rain 1hr cm | rain 24hr cm | rain mn cm | humidity % | barometer mb |
| 20260508014020 | 5 | 16 | 0.0 | 0.0 | 0.00 | 0.00 | 0.00 | 96 | 1017.9 |
| 20260508013031 | 6 | 20 | 0.0 | 0.0 | 0.00 | 0.00 | 0.00 | 96 | 1017.9 |
| 20260508011027 | 6 | 23 | 0.0 | 0.0 | 0.00 | 0.00 | 0.00 | 95 | 1018.0 |
| 20260508010027 | 6 | 24 | 0.0 | 0.0 | 0.00 | 0.00 | 0.00 | 94 | 1018.1 |
| 20260508005019 | 6 | 9 | 0.0 | 0.0 | 0.00 | 0.00 | 0.00 | 94 | 1018.2 |
| 20260508004031 | 6 | 4 | 0.0 | 0.0 | 0.00 | 0.00 | 0.00 | 94 | 1018.1 |
| 20260508003027 | 7 | 18 | 0.0 | 0.0 | 0.00 | 0.00 | 0.00 | 93 | 1018.2 |
| 20260508002039 | 7 | 21 | 0.0 | 0.0 | 0.00 | 0.00 | 0.00 | 93 | 1018.3 |
| 20260508001051 | 7 | 7 | 0.0 | 0.0 | 0.00 | 0.00 | 0.00 | 93 | 1018.3 |
| 20260508000027 | 7 | 357 | 0.0 | 0.0 | 0.00 | 0.00 | 0.00 | 92 | 1018.3 |
| 20260507235039 | 7 | 21 | 0.0 | 0.0 | 0.00 | 0.00 | 0.00 | 91 | 1018.3 |
| 20260507234019 | 7 | 351 | 0.0 | 0.0 | 0.00 | 0.00 | 0.00 | 91 | 1018.4 |
| 20260507233051 | 8 | 16 | 0.0 | 0.0 | 0.00 | 0.00 | 0.00 | 90 | 1018.3 |
| 20260507232027 | 8 | 16 | 0.0 | 0.0 | 0.00 | 0.00 | 0.00 | 90 | 1018.4 |
| 20260507231021 | 8 | 2 | 0.0 | 0.0 | 0.00 | 0.00 | 0.00 | 89 | 1018.3 |
| 20260507230021 | 8 | 6 | 0.0 | 0.0 | 0.00 | 0.00 | 0.00 | 88 | 1018.3 |
| 20260507225052 | 9 | 3 | 0.0 | 0.0 | 0.00 | 0.00 | 0.00 | 86 | 1018.4 |
| 20260507224027 | 9 | 19 | 0.0 | 0.0 | 0.00 | 0.00 | 0.00 | 86 | 1018.3 |
| 20260507223019 | 10 | 74 | 0.0 | 0.0 | 0.00 | 0.00 | 0.00 | 86 | 1018.4 |
| 20260507222031 | 10 | 358 | 0.0 | 0.0 | 0.00 | 0.00 | 0.00 | 84 | 1018.5 |
| 20260507221032 | 10 | 77 | 0.0 | 0.0 | 0.00 | 0.00 | 0.00 | 83 | 1018.6 |
| 20260507220027 | 10 | 173 | 0.0 | 0.0 | 0.00 | 0.00 | 0.00 | 82 | 1018.5 |
| 20260507215019 | 11 | 134 | 0.0 | 3.2 | 0.00 | 0.00 | 0.00 | 81 | 1018.5 |
| 20260507214031 | 11 | 128 | 0.0 | 3.2 | 0.00 | 0.00 | 0.00 | 81 | 1018.7 |
| 20260507213027 | 11 | 37 | 0.0 | 0.0 | 0.00 | 0.00 | 0.00 | 80 | 1018.6 |
| 20260507212022 | 11 | 145 | 0.0 | 3.2 | 0.00 | 0.00 | 0.00 | 80 | 1018.5 |
| 20260507211031 | 11 | 157 | 0.0 | 8.0 | 0.00 | 0.00 | 0.00 | 80 | 1018.6 |
| 20260507210031 | 11 | 161 | 0.0 | 0.0 | 0.00 | 0.00 | 0.00 | 78 | 1018.5 |
| 20260507204023 | 11 | 29 | 0.0 | 0.0 | 0.00 | 0.00 | 0.00 | 77 | 1018.2 |
| 20260507203019 | 11 | 42 | 0.0 | 3.2 | 0.00 | 0.00 | 0.00 | 77 | 1018.1 |
| 20260507202031 | 12 | 70 | 0.0 | 3.2 | 0.00 | 0.00 | 0.00 | 76 | 1018.0 |
| 20260507201027 | 12 | 54 | 0.0 | 0.0 | 0.00 | 0.00 | 0.00 | 76 | 1017.8 |
| 20260507200043 | 12 | 28 | 0.0 | 0.0 | 0.00 | 0.00 | 0.00 | 75 | 1017.7 |
| 20260507195019 | 12 | 45 | 0.0 | 0.0 | 0.00 | 0.00 | 0.00 | 74 | 1017.7 |
| 20260507194031 | 12 | 39 | 0.0 | 0.0 | 0.00 | 0.00 | 0.00 | 73 | 1017.4 |
| 20260507193031 | 12 | 40 | 0.0 | 0.0 | 0.00 | 0.00 | 0.00 | 72 | 1017.4 |
| 20260507192028 | 13 | 156 | 0.0 | 3.2 | 0.00 | 0.00 | 0.00 | 70 | 1017.4 |
| 20260507191019 | 13 | 165 | 0.0 | 8.0 | 0.00 | 0.00 | 0.00 | 69 | 1017.4 |
| 20260507190031 | 13 | 179 | 1.6 | 8.0 | 0.00 | 0.00 | 0.00 | 69 | 1017.4 |
| 20260507185026 | 13 | 149 | 1.6 | 8.0 | 0.00 | 0.00 | 0.00 | 68 | 1017.4 |
| 20260507184024 | 13 | 140 | 1.6 | 11.3 | 0.00 | 0.00 | 0.00 | 67 | 1017.3 |
| 20260507183033 | 13 | 163 | 1.6 | 8.0 | 0.00 | 0.00 | 0.00 | 66 | 1017.3 |
| 20260507182027 | 13 | 150 | 1.6 | 8.0 | 0.00 | 0.00 | 0.00 | 65 | 1017.2 |
| 20260507181034 | 13 | 124 | 1.6 | 8.0 | 0.00 | 0.00 | 0.00 | 62 | 1017.1 |
| 20260507180031 | 14 | 148 | 1.6 | 11.3 | 0.00 | 0.00 | 0.00 | 62 | 1017.0 |
| 20260507175027 | 14 | 146 | 1.6 | 11.3 | 0.00 | 0.00 | 0.00 | 62 | 1017.0 |
| 20260507174019 | 14 | 157 | 1.6 | 11.3 | 0.00 | 0.00 | 0.00 | 62 | 1017.0 |
| 20260507173031 | 14 | 156 | 1.6 | 8.0 | 0.00 | 0.00 | 0.00 | 61 | 1016.9 |
| 20260507172026 | 15 | 150 | 1.6 | 8.0 | 0.00 | 0.00 | 0.00 | 61 | 1016.9 |
| 20260507171019 | 15 | 131 | 1.6 | 16.1 | 0.00 | 0.00 | 0.00 | 60 | 1016.9 |
| 20260507170059 | 15 | 135 | 0.0 | 8.0 | 0.00 | 0.00 | 0.00 | 60 | 1017.0 |
| 20260507165031 | 16 | 137 | 1.6 | 8.0 | 0.00 | 0.00 | 0.00 | 59 | 1016.8 |
| 20260507164107 | 16 | 157 | 1.6 | 11.3 | 0.00 | 0.00 | 0.00 | 56 | 1016.9 |
| 20260507163059 | 16 | 112 | 1.6 | 8.0 | 0.00 | 0.00 | 0.00 | 54 | 1016.9 |
| 20260507162031 | 17 | 147 | 3.2 | 11.3 | 0.00 | 0.00 | 0.00 | 54 | 1016.8 |
| 20260507161027 | 17 | 147 | 3.2 | 16.1 | 0.00 | 0.00 | 0.00 | 54 | 1017.0 |
| 20260507160022 | 17 | 139 | 3.2 | 11.3 | 0.00 | 0.00 | 0.00 | 52 | 1016.9 |
| 20260507155031 | 17 | 160 | 3.2 | 11.3 | 0.00 | 0.00 | 0.00 | 45 | 1016.9 |
| 20260507154027 | 17 | 157 | 3.2 | 11.3 | 0.00 | 0.00 | 0.00 | 47 | 1016.9 |
| 20260507153026 | 17 | 140 | 1.6 | 8.0 | 0.00 | 0.00 | 0.00 | 48 | 1017.0 |
| 20260507152039 | 17 | 170 | 0.0 | 3.2 | 0.00 | 0.00 | 0.00 | 46 | 1017.0 |
| 20260507151031 | 16 | 126 | 0.0 | 3.2 | 0.00 | 0.00 | 0.00 | 47 | 1017.0 |
| 20260507150047 | 17 | 52 | 0.0 | 3.2 | 0.00 | 0.00 | 0.00 | 47 | 1017.1 |
| 20260507145022 | 17 | 102 | 1.6 | 8.0 | 0.00 | 0.00 | 0.00 | 47 | 1017.1 |
| 20260507144040 | 17 | 113 | 1.6 | 8.0 | 0.00 | 0.00 | 0.00 | 47 | 1017.1 |
| 20260507143031 | 17 | 166 | 1.6 | 8.0 | 0.00 | 0.00 | 0.00 | 46 | 1017.3 |
| 20260507142026 | 17 | 150 | 1.6 | 8.0 | 0.00 | 0.00 | 0.00 | 47 | 1017.2 |
| 20260507141040 | 16 | 155 | 0.0 | 3.2 | 0.00 | 0.00 | 0.00 | 46 | 1017.3 |
| 20260507140131 | 16 | 163 | 0.0 | 3.2 | 0.00 | 0.00 | 0.00 | 45 | 1017.3 |
| 20260507135026 | 16 | 125 | 0.0 | 0.0 | 0.00 | 0.00 | 0.00 | 48 | 1017.4 |
| 20260507134022 | 16 | 116 | 1.6 | 8.0 | 0.00 | 0.00 | 0.00 | 48 | 1017.4 |
| 20260507133019 | 16 | 137 | 0.0 | 3.2 | 0.00 | 0.00 | 0.00 | 49 | 1017.4 |
| 20260507132031 | 16 | 45 | 0.0 | 3.2 | 0.00 | 0.00 | 0.00 | 49 | 1017.5 |
| 20260507131027 | 16 | 137 | 1.6 | 8.0 | 0.00 | 0.00 | 0.00 | 47 | 1017.6 |
| 20260507130043 | 16 | 71 | 0.0 | 3.2 | 0.00 | 0.00 | 0.00 | 51 | 1017.4 |
| 20260507125019 | 15 | 167 | 1.6 | 8.0 | 0.00 | 0.00 | 0.00 | 49 | 1017.6 |
| 20260507124050 | 15 | 149 | 0.0 | 3.2 | 0.00 | 0.00 | 0.00 | 53 | 1017.7 |
| 20260507123027 | 15 | 72 | 1.6 | 11.3 | 0.00 | 0.00 | 0.00 | 55 | 1017.8 |
| 20260507122020 | 15 | 139 | 1.6 | 8.0 | 0.00 | 0.00 | 0.00 | 55 | 1017.7 |
| 20260507121030 | 15 | 61 | 0.0 | 8.0 | 0.00 | 0.00 | 0.00 | 54 | 1017.7 |
| 20260507120027 | 15 | 23 | 3.2 | 11.3 | 0.00 | 0.00 | 0.00 | 56 | 1017.9 |
| 20260507115034 | 14 | 25 | 0.0 | 3.2 | 0.00 | 0.00 | 0.00 | 55 | 1017.8 |
| 20260507114018 | 14 | 25 | 1.6 | 8.0 | 0.00 | 0.00 | 0.00 | 56 | 1017.9 |
| 20260507113033 | 14 | 23 | 1.6 | 11.3 | 0.00 | 0.00 | 0.00 | 57 | 1017.7 |
| 20260507112046 | 14 | 80 | 0.0 | 3.2 | 0.00 | 0.00 | 0.00 | 56 | 1017.9 |
| 20260507111018 | 15 | 9 | 0.0 | 3.2 | 0.00 | 0.00 | 0.00 | 55 | 1017.9 |
| 20260507110030 | 15 | 183 | 0.0 | 3.2 | 0.00 | 0.00 | 0.00 | 54 | 1018.0 |
| 20260507105027 | 15 | 137 | 1.6 | 8.0 | 0.00 | 0.00 | 0.00 | 54 | 1018.0 |
| 20260507104019 | 14 | 202 | 0.0 | 3.2 | 0.00 | 0.00 | 0.00 | 53 | 1018.0 |
| 20260507103039 | 14 | 23 | 3.2 | 11.3 | 0.00 | 0.00 | 0.00 | 54 | 1018.0 |
| 20260507102031 | 15 | 35 | 1.6 | 8.0 | 0.00 | 0.00 | 0.00 | 57 | 1018.1 |
| 20260507101027 | 15 | 31 | 1.6 | 8.0 | 0.00 | 0.00 | 0.00 | 57 | 1018.2 |
| 20260507100042 | 16 | 351 | 1.6 | 8.0 | 0.00 | 0.00 | 0.00 | 54 | 1018.2 |
| 20260507095050 | 15 | 76 | 0.0 | 8.0 | 0.00 | 0.00 | 0.00 | 51 | 1018.1 |
| 20260507094046 | 15 | 42 | 1.6 | 11.3 | 0.00 | 0.00 | 0.00 | 51 | 1018.0 |
| 20260507093046 | 15 | 64 | 1.6 | 8.0 | 0.00 | 0.00 | 0.00 | 49 | 1018.1 |
| 20260507092019 | 13 | 192 | 1.6 | 3.2 | 0.00 | 0.00 | 0.00 | 55 | 1018.1 |
| 20260507091031 | 13 | 148 | 1.6 | 8.0 | 0.00 | 0.00 | 0.00 | 63 | 1018.2 |
| 20260507090027 | 13 | 58 | 1.6 | 8.0 | 0.00 | 0.00 | 0.00 | 65 | 1018.3 |
| 20260507085026 | 12 | 81 | 1.6 | 8.0 | 0.00 | 0.00 | 0.00 | 68 | 1018.2 |
| 20260507084018 | 12 | 131 | 1.6 | 8.0 | 0.00 | 0.00 | 0.00 | 72 | 1018.1 |
| 20260507083030 | 12 | 137 | 1.6 | 8.0 | 0.00 | 0.00 | 0.00 | 72 | 1018.2 |
| 20260507082027 | 11 | 128 | 1.6 | 8.0 | 0.00 | 0.00 | 0.00 | 76 | 1018.2 |
| 20260507081034 | 11 | 136 | 0.0 | 3.2 | 0.00 | 0.00 | 0.00 | 78 | 1018.2 |
| 20260507080019 | 11 | 48 | 0.0 | 3.2 | 0.00 | 0.00 | 0.00 | 80 | 1018.1 |
| 20260507075031 | 10 | 84 | 0.0 | 3.2 | 0.00 | 0.00 | 0.00 | 81 | 1018.1 |
| 20260507074026 | 10 | 24 | 1.6 | 8.0 | 0.00 | 0.00 | 0.00 | 83 | 1018.2 |
| 20260507073059 | 9 | 40 | 0.0 | 3.2 | 0.00 | 0.00 | 0.00 | 85 | 1018.1 |
| 20260507072030 | 8 | 22 | 1.6 | 8.0 | 0.00 | 0.00 | 0.00 | 86 | 1018.2 |
| 20260507071030 | 8 | 22 | 0.0 | 3.2 | 0.00 | 0.00 | 0.00 | 87 | 1018.1 |
| 20260507070026 | 8 | 22 | 0.0 | 0.0 | 0.00 | 0.00 | 0.00 | 90 | 1018.1 |
| 20260507065106 | 7 | 325 | 0.0 | 0.0 | 0.00 | 0.00 | 0.00 | 91 | 1018.2 |
| 20260507064018 | 6 | 52 | 0.0 | 0.0 | 0.00 | 0.00 | 0.00 | 94 | 1018.0 |
| 20260507063030 | 6 | 105 | 0.0 | 0.0 | 0.00 | 0.00 | 0.00 | 96 | 1018.2 |
| 20260507062025 | 6 | 77 | 0.0 | 0.0 | 0.00 | 0.00 | 0.00 | 97 | 1018.0 |
| 20260507061018 | 5 | 326 | 0.0 | 0.0 | 0.00 | 0.00 | 0.00 | 98 | 1018.0 |
| 20260507060019 | 5 | 357 | 0.0 | 0.0 | 0.00 | 0.00 | 0.00 | 98 | 1017.8 |
| 20260507055030 | 4 | 357 | 0.0 | 0.0 | 0.00 | 0.00 | 0.00 | 98 | 1017.9 |
| 20260507054046 | 4 | 330 | 0.0 | 0.0 | 0.00 | 0.00 | 0.00 | 98 | 1017.7 |
| 20260507053018 | 3 | 14 | 0.0 | 0.0 | 0.00 | 0.00 | 0.00 | 99 | 1017.6 |
| 20260507052051 | 3 | 354 | 0.0 | 0.0 | 0.00 | 0.00 | 0.00 | 98 | 1017.6 |
| 20260507051026 | 3 | 351 | 0.0 | 0.0 | 0.00 | 0.00 | 0.00 | 98 | 1017.7 |
| 20260507050018 | 3 | 6 | 0.0 | 0.0 | 0.00 | 0.00 | 0.00 | 98 | 1017.6 |
| 20260507045106 | 3 | 48 | 0.0 | 0.0 | 0.00 | 0.00 | 0.00 | 98 | 1017.5 |
| 20260507044018 | 3 | 53 | 0.0 | 0.0 | 0.00 | 0.00 | 0.00 | 98 | 1017.5 |
| 20260507043111 | 3 | 10 | 0.0 | 0.0 | 0.00 | 0.00 | 0.00 | 97 | 1017.5 |
| 20260507042026 | 4 | 32 | 0.0 | 0.0 | 0.00 | 0.00 | 0.00 | 97 | 1017.5 |
| 20260507041046 | 4 | 8 | 0.0 | 0.0 | 0.00 | 0.00 | 0.00 | 97 | 1017.5 |
| 20260507040019 | 4 | 53 | 0.0 | 0.0 | 0.00 | 0.00 | 0.00 | 97 | 1017.5 |
| 20260507035050 | 5 | 348 | 0.0 | 0.0 | 0.00 | 0.00 | 0.00 | 96 | 1017.4 |
| 20260507034031 | 5 | 353 | 0.0 | 0.0 | 0.00 | 0.00 | 0.00 | 96 | 1017.4 |
| 20260507033022 | 5 | 353 | 0.0 | 0.0 | 0.00 | 0.00 | 0.00 | 95 | 1017.3 |
| 20260507032030 | 5 | 21 | 0.0 | 0.0 | 0.00 | 0.00 | 0.00 | 95 | 1017.3 |
| 20260507031027 | 5 | 15 | 0.0 | 0.0 | 0.00 | 0.00 | 0.00 | 94 | 1017.2 |
| 20260507030022 | 5 | 17 | 0.0 | 0.0 | 0.00 | 0.00 | 0.00 | 94 | 1017.3 |
| 20260507025018 | 5 | 359 | 0.0 | 0.0 | 0.00 | 0.00 | 0.00 | 94 | 1017.2 |
| 20260507024030 | 5 | 17 | 0.0 | 0.0 | 0.00 | 0.00 | 0.00 | 94 | 1017.3 |
| 20260507023026 | 5 | 13 | 0.0 | 0.0 | 0.00 | 0.00 | 0.00 | 93 | 1017.4 |
| 20260507022019 | 6 | 1 | 0.0 | 0.0 | 0.00 | 0.00 | 0.00 | 93 | 1017.3 |
| 20260507021018 | 6 | 354 | 0.0 | 0.0 | 0.00 | 0.00 | 0.00 | 92 | 1017.1 |
| 20260507020030 | 6 | 17 | 0.0 | 0.0 | 0.00 | 0.00 | 0.00 | 92 | 1017.0 |
| 20260507015025 | 6 | 15 | 0.0 | 0.0 | 0.00 | 0.00 | 0.00 | 91 | 1017.1 |